Location: Asheville, NC
(35.6000°N, 82.5500°W)
Time: 02:27:28

XW-2B - Pass Details

Date: 17 March 2018
Orbit: 511 x 530 km, 97.5° (Epoch: 16 March)

Event Time Altitude Azimuth Distance (km) Brightness Sun altitude
Rises 06:49:36 0° 27° (NNE) 2,665 ? -10.7°
Reaches altitude 10° 06:52:03 10° 42° (NE) 1,773 ? -10.2°
Maximum altitude 06:55:07 23° 96° (E) 1,161 ? -9.6°
Drops below altitude 10° 06:58:10 10° 149° (SSE) 1,767 ? -8.9°
Sets 07:00:36 0° 164° (SSE) 2,652 ? -8.5°
